Flag for U.S.A. Weather past 2 weeks in Brownsville, Texas, U.S.A.

Now
77 °F

Clear.


Feels Like: 78 °F
Forecast: 76 / 91 °F
Wind: 5 mph from South

Location: Brownsville / South Padre Island International Airport

Current Time: Oct 1, 2014 at 3:38:02 AM

Latest Report: Oct 1, 2014 at 2:53 AM


Visibility: 10 mi

Pressure: 29.78 "Hg

Humidity: 100%

Dew point: 77 °F

Location of BrownsvilleLocation

Historic Weather in Brownsville — Graph

°F

Brownsville temperature yesterday

Maximum temperature yesterday: 89 °F (at 3:53 PM)
Minimum temperature yesterday: 73 °F (at 5:02 AM)
Average temperature yesterday: 79 °F

Past Weeks' High & Low Weather Summary

 TemperatureHumidityPressure
High92 °F (Sep 19, 1:53 PM)100% (Sep 16, 1:53 AM)30.06 "Hg (Sep 16, 1:53 AM)
Low69 °F (Sep 28, 5:53 AM)57% (Sep 23, 2:53 PM)29.74 "Hg (Sep 30, 4:53 PM)
Average80 °F86%29.91 "Hg
* Reported Sep 16 1:53 AM — Oct 1 1:53 AM, Brownsville, Weather by CustomWeather, © 2014

Note: Actual official high and low records may vary slightly from our data, if they occured in-between our weather recording intervals... More about our weather records

Advertising

Brownsville weather history for previous 24 hours

 ConditionsComfort  
Time TempWeatherWind HumidityBarometerVisibility
1:53 AM
Oct 1
77 °FPassing clouds.6 mph100%29.79 "Hg10 mi
12:53 AM76 °FClear.No wind100%29.80 "Hg10 mi
11:53 PM
Sep 30
75 °FClear.5 mph100%29.80 "Hg10 mi
10:53 PM77 °FClear.3 mph100%29.79 "Hg10 mi
9:53 PM77 °FClear.3 mph100%29.78 "Hg10 mi
8:53 PM79 °FClear.5 mph97%29.76 "Hg10 mi
7:53 PM80 °FSunny.9 mph94%29.75 "Hg10 mi
6:53 PM83 °FScattered clouds.9 mph88%29.75 "Hg10 mi
5:53 PM86 °FPassing clouds.6 mph75%29.74 "Hg10 mi
4:53 PM89 °FScattered clouds.5 mph68%29.74 "Hg10 mi
3:53 PM89 °FPartly sunny.7 mph68%29.75 "Hg10 mi
2:53 PM87 °FScattered clouds.3 mph72%29.77 "Hg10 mi
1:53 PM88 °FSunny.7 mph73%29.80 "Hg10 mi
12:53 PM86 °FPassing clouds.3 mph75%29.83 "Hg10 mi
12:03 PM84 °FPartly sunny.No wind79%29.84 "Hg10 mi
11:53 AM86 °FScattered clouds.5 mph77%29.84 "Hg10 mi
10:53 AM83 °FPassing clouds.8 mph88%29.85 "Hg10 mi
9:53 AM78 °FLow clouds.No wind100%29.85 "Hg7 mi
8:53 AM75 °FFog.No windN/A29.84 "Hg0 mi
8:03 AM75 °FFog.No wind100%29.83 "Hg1 mi
7:53 AM75 °FFog.No wind96%29.83 "Hg5 mi
7:03 AM75 °FFog.No wind94%29.83 "Hg1 mi
6:53 AM75 °FFog.3 mph96%29.82 "Hg0 mi
5:53 AM75 °FFog.No wind100%29.82 "Hg0 mi
5:02 AM73 °FPassing clouds.5 mph100%29.82 "Hg9 mi
4:53 AM74 °FPassing clouds.3 mph100%29.81 "Hg10 mi
3:53 AM74 °FPassing clouds.No wind100%29.82 "Hg9 mi
Weather by CustomWeather, © 2014

See weather overviewHow to use our weather pages